Time,TemperatureF,DewpointF,PressureIn,WindDirection,WindDirectionDegrees,WindSpeedMPH,WindSpeedGustMPH,Humidity,HourlyPrecipIn,Conditions,Clouds,dailyrainin,SoftwareType,DateUTC
2013-02-13 00:02:00,38.0,38.0,29.86,WSW,251,0.0,0.0,100,0.05,,,-99.99,,2013-02-13 05:02:00,
2013-02-13 00:11:00,38.0,38.0,29.86,WSW,251,0.0,0.0,100,0.05,,,-99.99,,2013-02-13 05:11:00,
2013-02-13 00:22:00,38.0,38.0,29.86,WSW,251,0.0,0.0,100,0.05,,,-99.99,,2013-02-13 05:22:00,
2013-02-13 00:32:00,38.0,38.0,29.85,WSW,251,0.0,0.0,100,0.05,,,-99.99,,2013-02-13 05:32:00,
2013-02-13 00:42:00,38.0,38.0,29.85,WSW,251,0.0,0.0,100,0.05,,,-99.99,,2013-02-13 05:42:00,
2013-02-13 00:52:00,38.0,38.0,29.85,WSW,251,0.0,0.0,100,0.05,,,-99.99,,2013-02-13 05:52:00,
2013-02-13 01:02:00,38.0,38.0,29.84,WSW,251,0.0,0.0,100,0.08,,,-99.99,,2013-02-13 06:02:00,
2013-02-13 01:11:00,38.0,38.0,29.84,WSW,251,0.0,0.0,100,0.08,,,-99.99,,2013-02-13 06:11:00,
2013-02-13 01:22:00,38.0,38.0,29.84,WSW,251,0.0,0.0,100,0.08,,,-99.99,,2013-02-13 06:22:00,
2013-02-13 01:32:00,37.0,37.0,29.79,WSW,251,0.0,1.0,100,0.10,,,-99.99,,2013-02-13 06:32:00,
2013-02-13 01:42:00,37.0,37.0,29.79,WSW,251,0.0,1.0,100,0.10,,,-99.99,,2013-02-13 06:42:00,
2013-02-13 01:52:00,37.0,37.0,29.79,WSW,251,0.0,1.0,100,0.10,,,-99.99,,2013-02-13 06:52:00,
2013-02-13 02:02:00,37.0,37.0,29.79,WSW,251,0.0,1.0,100,0.04,,,-99.99,,2013-02-13 07:02:00,
2013-02-13 02:11:00,37.0,37.0,29.79,WSW,251,0.0,1.0,100,0.04,,,-99.99,,2013-02-13 07:11:00,
2013-02-13 02:22:00,37.0,37.0,29.79,WSW,251,0.0,1.0,100,0.04,,,-99.99,,2013-02-13 07:22:00,
2013-02-13 02:32:00,37.0,37.0,29.76,WSW,251,0.0,0.0,100,0.01,,,-99.99,,2013-02-13 07:32:00,
2013-02-13 02:42:00,37.0,37.0,29.76,WSW,251,0.0,0.0,100,0.01,,,-99.99,,2013-02-13 07:42:00,
2013-02-13 02:52:00,37.0,37.0,29.76,WSW,251,0.0,0.0,100,0.01,,,-99.99,,2013-02-13 07:52:00,
2013-02-13 03:01:00,37.0,37.0,29.76,WSW,251,0.0,0.0,100,0.00,,,-99.99,,2013-02-13 08:01:00,
2013-02-13 03:11:00,37.0,37.0,29.76,WSW,251,0.0,0.0,100,0.00,,,-99.99,,2013-02-13 08:11:00,
2013-02-13 03:21:00,37.0,37.0,29.76,WSW,251,0.0,0.0,100,0.00,,,-99.99,,2013-02-13 08:21:00,
2013-02-13 03:32:00,37.0,37.0,29.75,WSW,244,0.0,6.0,100,0.00,,,-99.99,,2013-02-13 08:32:00,
2013-02-13 03:43:00,37.0,37.0,29.75,WSW,244,0.0,6.0,100,0.00,,,-99.99,,2013-02-13 08:43:00,
2013-02-13 03:52:00,37.0,37.0,29.75,WSW,244,0.0,6.0,100,0.00,,,-99.99,,2013-02-13 08:52:00,
2013-02-13 04:02:00,37.0,37.0,29.73,WSW,244,0.0,0.0,100,0.00,,,-99.99,,2013-02-13 09:02:00,
2013-02-13 04:11:00,37.0,37.0,29.73,WSW,244,0.0,0.0,100,0.00,,,-99.99,,2013-02-13 09:11:00,
2013-02-13 04:21:00,37.0,37.0,29.73,WSW,244,0.0,0.0,100,0.00,,,-99.99,,2013-02-13 09:21:00,
2013-02-13 04:32:00,37.0,37.0,29.72,WSW,244,0.0,0.0,100,0.00,,,-99.99,,2013-02-13 09:32:00,
2013-02-13 04:42:00,37.0,37.0,29.72,WSW,244,0.0,0.0,100,0.00,,,-99.99,,2013-02-13 09:42:00,
2013-02-13 04:52:00,37.0,37.0,29.72,WSW,244,0.0,0.0,100,0.00,,,-99.99,,2013-02-13 09:52:00,
2013-02-13 05:01:00,37.0,37.0,29.72,WSW,244,0.0,0.0,100,0.00,,,-99.99,,2013-02-13 10:01:00,
2013-02-13 05:11:00,37.0,37.0,29.72,WSW,244,0.0,0.0,100,0.00,,,-99.99,,2013-02-13 10:11:00,
2013-02-13 05:32:00,37.0,37.0,29.72,WSW,244,0.0,0.0,100,0.02,,,-99.99,,2013-02-13 10:32:00,
2013-02-13 05:42:00,37.0,37.0,29.72,WSW,244,0.0,0.0,100,0.02,,,-99.99,,2013-02-13 10:42:00,
2013-02-13 05:52:00,37.0,37.0,29.72,WSW,244,0.0,0.0,100,0.02,,,-99.99,,2013-02-13 10:52:00,
2013-02-13 06:01:00,37.0,37.0,29.70,WSW,244,0.0,0.0,100,0.01,,,-99.99,,2013-02-13 11:01:00,
2013-02-13 06:11:00,37.0,37.0,29.70,WSW,244,0.0,0.0,100,0.01,,,-99.99,,2013-02-13 11:11:00,
2013-02-13 06:22:00,37.0,37.0,29.70,WSW,244,0.0,0.0,100,0.01,,,-99.99,,2013-02-13 11:22:00,
2013-02-13 06:32:00,37.0,37.0,29.70,WSW,244,0.0,0.0,100,0.00,,,-99.99,,2013-02-13 11:32:00,
2013-02-13 06:42:00,37.0,37.0,29.70,WSW,244,0.0,0.0,100,0.00,,,-99.99,,2013-02-13 11:42:00,
2013-02-13 06:52:00,37.0,37.0,29.70,WSW,244,0.0,0.0,100,0.00,,,-99.99,,2013-02-13 11:52:00,
2013-02-13 07:02:00,37.0,37.0,29.70,WSW,244,0.0,0.0,100,0.00,,,-99.99,,2013-02-13 12:02:00,
2013-02-13 07:11:00,37.0,37.0,29.70,WSW,244,0.0,0.0,100,0.00,,,-99.99,,2013-02-13 12:11:00,
2013-02-13 07:32:00,37.0,37.0,29.71,WSW,244,0.0,0.0,100,0.00,,,-99.99,,2013-02-13 12:32:00,
2013-02-13 07:42:00,37.0,37.0,29.71,WSW,244,0.0,0.0,100,0.00,,,-99.99,,2013-02-13 12:42:00,
2013-02-13 07:52:00,37.0,37.0,29.71,WSW,244,0.0,0.0,100,0.00,,,-99.99,,2013-02-13 12:52:00,
2013-02-13 08:02:00,37.0,37.0,29.70,WSW,244,0.0,0.0,100,0.00,,,-99.99,,2013-02-13 13:02:00,
2013-02-13 08:11:00,37.0,37.0,29.70,WSW,244,0.0,0.0,100,0.00,,,-99.99,,2013-02-13 13:11:00,
2013-02-13 08:21:00,37.0,37.0,29.70,WSW,244,0.0,0.0,100,0.00,,,-99.99,,2013-02-13 13:21:00,
2013-02-13 08:32:00,37.0,37.0,29.71,WSW,244,0.0,0.0,100,9.87,,,-99.99,,2013-02-13 13:32:00,
2013-02-13 08:42:00,37.0,37.0,29.71,WSW,244,0.0,0.0,100,9.87,,,-99.99,,2013-02-13 13:42:00,
2013-02-13 08:52:00,37.0,37.0,29.71,WSW,244,0.0,0.0,100,9.87,,,-99.99,,2013-02-13 13:52:00,
2013-02-13 09:01:00,37.0,37.0,29.71,WSW,244,0.0,0.0,100,9.87,,,-99.99,,2013-02-13 14:01:00,
2013-02-13 09:11:00,37.0,37.0,29.71,WSW,244,0.0,0.0,100,9.87,,,-99.99,,2013-02-13 14:11:00,
2013-02-13 09:21:00,37.0,37.0,29.71,WSW,244,0.0,0.0,100,9.87,,,-99.99,,2013-02-13 14:21:00,
2013-02-13 09:32:00,38.0,38.0,29.71,WSW,244,0.0,0.0,100,0.01,,,-99.99,,2013-02-13 14:32:00,
2013-02-13 09:42:00,38.0,38.0,29.71,WSW,244,0.0,0.0,100,0.01,,,-99.99,,2013-02-13 14:42:00,
2013-02-13 09:52:00,38.0,38.0,29.71,WSW,244,0.0,0.0,100,0.01,,,-99.99,,2013-02-13 14:52:00,
2013-02-13 10:02:00,38.0,38.0,29.70,WSW,244,0.0,0.0,100,0.01,,,-99.99,,2013-02-13 15:02:00,
2013-02-13 10:11:00,38.0,38.0,29.70,WSW,244,0.0,0.0,100,0.01,,,-99.99,,2013-02-13 15:11:00,
2013-02-13 10:21:00,38.0,38.0,29.70,WSW,244,0.0,0.0,100,0.01,,,-99.99,,2013-02-13 15:21:00,
2013-02-13 10:32:00,38.0,38.0,29.69,WSW,244,0.0,0.0,100,0.00,,,-99.99,,2013-02-13 15:32:00,
2013-02-13 10:42:00,38.0,38.0,29.69,WSW,244,0.0,0.0,100,0.00,,,-99.99,,2013-02-13 15:42:00,
2013-02-13 10:52:00,38.0,38.0,29.69,WSW,244,0.0,0.0,100,0.00,,,-99.99,,2013-02-13 15:52:00,
2013-02-13 11:01:00,38.0,38.0,29.68,SE,138,0.0,0.0,100,0.00,,,-99.99,,2013-02-13 16:01:00,
2013-02-13 11:11:00,38.0,38.0,29.68,SE,138,0.0,0.0,100,0.00,,,-99.99,,2013-02-13 16:11:00,
2013-02-13 11:21:00,38.0,38.0,29.68,SE,138,0.0,0.0,100,0.00,,,-99.99,,2013-02-13 16:21:00,
2013-02-13 11:32:00,38.0,38.0,29.67,SE,137,0.0,0.0,100,0.01,,,-99.99,,2013-02-13 16:32:00,
2013-02-13 11:42:00,38.0,38.0,29.67,SE,137,0.0,0.0,100,0.01,,,-99.99,,2013-02-13 16:42:00,
2013-02-13 11:52:00,38.0,38.0,29.67,SE,137,0.0,0.0,100,0.01,,,-99.99,,2013-02-13 16:52:00,
2013-02-13 12:02:00,39.0,39.0,29.63,SE,137,0.0,0.0,100,0.01,,,-99.99,,2013-02-13 17:02:00,
2013-02-13 12:11:00,39.0,39.0,29.63,SE,137,0.0,0.0,100,0.01,,,-99.99,,2013-02-13 17:11:00,
2013-02-13 12:21:00,39.0,39.0,29.63,SE,137,0.0,0.0,100,0.01,,,-99.99,,2013-02-13 17:21:00,
2013-02-13 12:32:00,39.0,39.0,29.62,SE,137,0.0,1.0,100,0.00,,,-99.99,,2013-02-13 17:32:00,
2013-02-13 12:42:00,39.0,39.0,29.62,SE,137,0.0,1.0,100,0.00,,,-99.99,,2013-02-13 17:42:00,
2013-02-13 12:52:00,39.0,39.0,29.62,SE,137,0.0,1.0,100,0.00,,,-99.99,,2013-02-13 17:52:00,
2013-02-13 13:02:00,39.0,39.0,29.58,West,263,0.0,3.0,100,0.00,,,-99.99,,2013-02-13 18:02:00,
2013-02-13 13:11:00,39.0,39.0,29.58,West,263,0.0,3.0,100,0.00,,,-99.99,,2013-02-13 18:11:00,
2013-02-13 13:23:00,39.0,39.0,29.58,West,263,0.0,3.0,100,0.00,,,-99.99,,2013-02-13 18:23:00,
2013-02-13 13:32:00,41.0,41.0,29.58,East,83,0.0,7.0,100,0.00,,,-99.99,,2013-02-13 18:32:00,
2013-02-13 13:42:00,41.0,41.0,29.58,East,83,0.0,7.0,100,0.00,,,-99.99,,2013-02-13 18:42:00,
2013-02-13 13:52:00,41.0,41.0,29.58,East,83,0.0,7.0,100,0.00,,,-99.99,,2013-02-13 18:52:00,
2013-02-13 14:01:00,43.0,43.0,29.57,NNE,14,2.0,8.0,100,0.00,,,-99.99,,2013-02-13 19:01:00,
2013-02-13 14:11:00,43.0,43.0,29.57,NNE,14,2.0,8.0,100,0.00,,,-99.99,,2013-02-13 19:11:00,
2013-02-13 14:21:00,43.0,43.0,29.57,NNE,14,2.0,8.0,100,0.00,,,-99.99,,2013-02-13 19:21:00,
2013-02-13 14:32:00,44.0,43.0,29.57,East,79,2.0,6.0,98,0.00,,,-99.99,,2013-02-13 19:32:00,
2013-02-13 14:42:00,44.0,43.0,29.57,East,79,2.0,6.0,98,0.00,,,-99.99,,2013-02-13 19:42:00,
2013-02-13 14:52:00,44.0,43.0,29.57,East,79,2.0,6.0,98,0.00,,,-99.99,,2013-02-13 19:52:00,
2013-02-13 15:02:00,45.0,43.0,29.56,ENE,78,3.0,8.0,93,0.00,,,-99.99,,2013-02-13 20:02:00,
2013-02-13 15:11:00,45.0,43.0,29.56,ENE,78,3.0,8.0,93,0.00,,,-99.99,,2013-02-13 20:11:00,
2013-02-13 15:22:00,45.0,43.0,29.56,ENE,78,3.0,8.0,93,0.00,,,-99.99,,2013-02-13 20:22:00,
2013-02-13 15:32:00,47.0,45.0,29.55,ESE,104,0.0,7.0,91,0.00,,,-99.99,,2013-02-13 20:32:00,
2013-02-13 15:42:00,47.0,45.0,29.55,ESE,104,0.0,7.0,91,0.00,,,-99.99,,2013-02-13 20:42:00,
2013-02-13 15:52:00,47.0,45.0,29.55,ESE,104,0.0,7.0,91,0.00,,,-99.99,,2013-02-13 20:52:00,
2013-02-13 16:02:00,49.0,42.0,29.58,NW,323,0.0,7.0,78,0.00,,,-99.99,,2013-02-13 21:02:00,
2013-02-13 16:11:00,49.0,42.0,29.58,NW,323,0.0,7.0,78,0.00,,,-99.99,,2013-02-13 21:11:00,
2013-02-13 16:21:00,49.0,42.0,29.58,NW,323,0.0,7.0,78,0.00,,,-99.99,,2013-02-13 21:21:00,
2013-02-13 16:32:00,50.0,42.0,29.59,West,271,1.0,3.0,74,0.00,,,-99.99,,2013-02-13 21:32:00,
2013-02-13 16:42:00,50.0,42.0,29.59,West,271,1.0,3.0,74,0.00,,,-99.99,,2013-02-13 21:42:00,
2013-02-13 16:52:00,50.0,42.0,29.59,West,271,1.0,3.0,74,0.00,,,-99.99,,2013-02-13 21:52:00,
2013-02-13 17:02:00,48.0,42.0,29.58,NW,309,1.0,5.0,80,0.00,,,-99.99,,2013-02-13 22:02:00,
2013-02-13 17:11:00,48.0,42.0,29.58,NW,309,1.0,5.0,80,0.00,,,-99.99,,2013-02-13 22:11:00,
2013-02-13 17:21:00,48.0,42.0,29.58,NW,309,1.0,5.0,80,0.00,,,-99.99,,2013-02-13 22:21:00,
2013-02-13 17:32:00,45.0,41.0,29.59,WNW,295,2.0,3.0,86,0.00,,,-99.99,,2013-02-13 22:32:00,
2013-02-13 17:42:00,45.0,41.0,29.59,WNW,295,2.0,3.0,86,0.00,,,-99.99,,2013-02-13 22:42:00,
2013-02-13 17:52:00,45.0,41.0,29.59,WNW,295,2.0,3.0,86,0.00,,,-99.99,,2013-02-13 22:52:00,
2013-02-13 18:01:00,43.0,39.0,29.62,West,277,1.0,3.0,85,0.00,,,-99.99,,2013-02-13 23:01:00,
2013-02-13 18:11:00,43.0,39.0,29.62,West,277,1.0,3.0,85,0.00,,,-99.99,,2013-02-13 23:11:00,
2013-02-13 18:22:00,43.0,39.0,29.62,West,277,1.0,3.0,85,0.00,,,-99.99,,2013-02-13 23:22:00,
2013-02-13 18:32:00,42.0,37.0,29.67,NNW,328,1.0,6.0,82,0.00,,,-99.99,,2013-02-13 23:32:00,
2013-02-13 18:42:00,42.0,37.0,29.67,NNW,328,1.0,6.0,82,0.00,,,-99.99,,2013-02-13 23:42:00,
2013-02-13 18:53:00,42.0,37.0,29.67,NNW,328,1.0,6.0,82,0.00,,,-99.99,,2013-02-13 23:53:00,
2013-02-13 19:02:00,41.0,37.0,29.70,NW,305,1.0,8.0,84,0.00,,,-99.99,,2013-02-14 00:02:00,
2013-02-13 19:11:00,41.0,37.0,29.70,NW,305,1.0,8.0,84,0.00,,,-99.99,,2013-02-14 00:11:00,
2013-02-13 19:22:00,41.0,37.0,29.70,NW,305,1.0,8.0,84,0.00,,,-99.99,,2013-02-14 00:22:00,
2013-02-13 19:32:00,41.0,37.0,29.70,NW,305,1.0,8.0,84,0.00,,,-99.99,,2013-02-14 00:32:00,
2013-02-13 20:01:00,38.0,33.0,29.71,NNW,328,1.0,7.0,83,-99.99,,,-99.99,,2013-02-14 01:01:00,
2013-02-13 20:11:00,38.0,33.0,29.71,NNW,328,1.0,7.0,83,-99.99,,,-99.99,,2013-02-14 01:11:00,
2013-02-13 20:21:00,38.0,33.0,29.71,NNW,328,1.0,7.0,83,-99.99,,,-99.99,,2013-02-14 01:21:00,
2013-02-13 20:32:00,37.0,32.0,29.72,West,277,2.0,7.0,82,-99.99,,,-99.99,,2013-02-14 01:32:00,
2013-02-13 20:41:00,37.0,32.0,29.72,West,277,2.0,7.0,82,-99.99,,,-99.99,,2013-02-14 01:41:00,
2013-02-13 20:52:00,37.0,32.0,29.72,West,277,2.0,7.0,82,-99.99,,,-99.99,,2013-02-14 01:52:00,
2013-02-13 21:02:00,36.0,31.0,29.74,NW,306,4.0,12.0,83,0.00,,,-99.99,,2013-02-14 02:02:00,
2013-02-13 21:11:00,36.0,31.0,29.74,NW,306,4.0,12.0,83,0.00,,,-99.99,,2013-02-14 02:11:00,
2013-02-13 21:21:00,36.0,31.0,29.74,NW,306,4.0,12.0,83,0.00,,,-99.99,,2013-02-14 02:21:00,
2013-02-13 21:32:00,35.0,30.0,29.74,NE,40,2.0,10.0,82,0.00,,,-99.99,,2013-02-14 02:32:00,
2013-02-13 21:41:00,35.0,30.0,29.74,NE,40,2.0,10.0,82,0.00,,,-99.99,,2013-02-14 02:41:00,
2013-02-13 21:52:00,35.0,30.0,29.74,NE,40,2.0,10.0,82,0.00,,,-99.99,,2013-02-14 02:52:00,
2013-02-13 22:02:00,35.0,30.0,29.76,NW,306,3.0,7.0,83,0.00,,,-99.99,,2013-02-14 03:02:00,
2013-02-13 22:11:00,35.0,30.0,29.76,NW,306,3.0,7.0,83,0.00,,,-99.99,,2013-02-14 03:11:00,
2013-02-13 22:22:00,35.0,30.0,29.76,NW,306,3.0,7.0,83,0.00,,,-99.99,,2013-02-14 03:22:00,
2013-02-13 22:32:00,35.0,31.0,29.77,NW,304,2.0,6.0,85,0.00,,,-99.99,,2013-02-14 03:32:00,
2013-02-13 22:42:00,35.0,31.0,29.77,NW,304,2.0,6.0,85,0.00,,,-99.99,,2013-02-14 03:42:00,
2013-02-13 22:52:00,35.0,31.0,29.77,NW,304,2.0,6.0,85,0.00,,,-99.99,,2013-02-14 03:52:00,
2013-02-13 23:01:00,33.0,30.0,29.77,WNW,289,2.0,6.0,88,0.00,,,-99.99,,2013-02-14 04:01:00,
2013-02-13 23:12:00,33.0,30.0,29.77,WNW,289,2.0,6.0,88,0.00,,,-99.99,,2013-02-14 04:12:00,
2013-02-13 23:21:00,33.0,30.0,29.77,WNW,289,2.0,6.0,88,0.00,,,-99.99,,2013-02-14 04:21:00,
2013-02-13 23:32:00,33.0,30.0,29.78,NW,305,2.0,4.0,88,0.00,,,-99.99,,2013-02-14 04:32:00,
2013-02-13 23:41:00,33.0,30.0,29.78,NW,305,2.0,4.0,88,0.00,,,-99.99,,2013-02-14 04:41:00,
2013-02-13 23:52:00,33.0,30.0,29.78,NW,305,2.0,4.0,88,0.00,,,-99.99,,2013-02-14 04:52:00,